sat.trackr.live / text

‹ back to catalog

STARLINK-35301

NORAD 65843 · 2025-221W

PAYLOAD ACTIVE UNKNOWN

§ Identity

Operator
Country
US
Launch date
2025-09-29
Launch site
AFWTR
Launch vehicle
Mass (kg)
RCS (m²)

Purposes: comms

External: N2YO · Heavens-Above · Gunter

§ Orbital elements

Epoch: 2026-05-25T03:11:55.004064Z

Period
93.85 min
Inclination
53.1582°
Eccentricity
0.0001142
Mean motion
15.34405232 rev/d
Perigee alt
461.9 km
Apogee alt
463.5 km
Semi-major
6,840.8 km
B*
7.4087e-4
RAAN
92.8146°
Arg perigee
95.7457°
Mean anomaly
264.3676°
Rev number
3,644

§ Raw data

STARLINK-353011 65843U 25221W   26145.13327551  .00024742  00000+0  74087-3 0  99902 65843  53.1582  92.8146 0001142  95.7457 264.3676 15.34405232 36447

JSON: /api/v1/satellites/65843 · /tle

For live sub-satellite position, see the globe view (requires WebGL).

§ Visibility from observer

Set your observer location to see the next 7 days of passes ≥ 10°. The values pass through the URL so the page stays shareable.

No JS? Fill the form by hand. The geolocation button needs JavaScript.